Weather History for Ketchikan, AK

Change the Weather History Date:

Thursday, November 22, 2012

  Actual Average Record
Temperature  
Mean Temperature 6 °C -  
Max Temperature 7 °C 6 °C 15 °C (1949)
Min Temperature 4 °C 0 °C -13 °C (1996)
Degree Days  
Heating Degree Days 24    
Moisture  
Dew Point 2 °C    
Average Humidity 79    
Maximum Humidity 87    
Minimum Humidity 55    
Precipitation  
Precipitation 24.13 mm - - ()
Sea Level Pressure  
Sea Level Pressure 1002 hPa    
Wind  
Wind Speed 29 km/h (SE)    
Max Wind Speed 50 km/h    
Max Gust Speed 74 km/h    
Visibility 14 kilometers    
Events Rain    
Averages and records for this station are not official NWS values.
T = Trace of Precipitation, MM = Missing Value Source: NWS Daily Summary

Daily Weather History Graph

Daily Weather History Graph

Search for Another Location

Airport:

Trip Planner

Search our weather history database for the weather conditions in past years. The results will help you decide how hot, cold, wet, or windy it might be!

Date:

Astronomy

Nov. 22, 2012 Rise Set
Actual Time 7:35 AM AKST 3:30 PM AKST
Civil Twilight 6:52 AM AKST 4:13 PM AKST
Nautical Twilight 6:06 AM AKST 4:59 PM AKST
Astronomical Twilight 5:22 AM AKST 5:42 PM AKST
Moon 1:05 PM AKST (11/22) 1:10 AM AKST (11/22)
Length of Visible Light 9h 20m
Length of Day
7h 55m
Waxing Gibbous, 72% of the Moon is Illuminated
Nov 22
Waxing Gibbous
Nov 28
Full
Dec 6
Last Quarter
Dec 12
New
Dec 19
First Quarter

Hourly Weather History & Observations

Time (AKST) Temp. Windchill Dew Point Humidity Pressure Visibility Wind Dir Wind Speed Gust Speed Precip Events Conditions
12:53 AM 4.4 °C 0.3 °C 0.6 °C 77% 1013.0 hPa 16.1 km SSE 20.4 km/h / 5.7 m/s 46.3 km/h / 12.9 m/s N/A   Overcast
1:53 AM 4.4 °C 1.1 °C 0.6 °C 77% 1012.2 hPa 16.1 km SSE 14.8 km/h / 4.1 m/s - N/A   Overcast
3:53 AM 6.1 °C 3.2 °C -1.7 °C 58% 1009.7 hPa 16.1 km SSE 14.8 km/h / 4.1 m/s 48.2 km/h / 13.4 m/s N/A   Overcast
4:53 AM 6.7 °C 1.5 °C -1.7 °C 55% 1008.5 hPa 16.1 km ESE 40.7 km/h / 11.3 m/s 63.0 km/h / 17.5 m/s N/A   Overcast
5:53 AM 5.6 °C -0.1 °C 0.0 °C 67% 1007.1 hPa 16.1 km SE 42.6 km/h / 11.8 m/s 59.3 km/h / 16.5 m/s 0.0 mm Rain Light Rain
6:09 AM 5.0 °C -0.6 °C 0.0 °C 70% 1006.7 hPa 16.1 km ESE 38.9 km/h / 10.8 m/s 59.3 km/h / 16.5 m/s 0.0 mm Rain Light Rain
6:53 AM 5.6 °C -0.2 °C 0.0 °C 67% 1005.2 hPa 16.1 km ESE 44.4 km/h / 12.3 m/s 74.1 km/h / 20.6 m/s 0.0 mm Rain Light Rain
7:53 AM 5.6 °C -0.5 °C 0.6 °C 70% 1003.6 hPa 14.5 km SE 50.0 km/h / 13.9 m/s 68.5 km/h / 19.0 m/s 0.3 mm Rain Light Rain
8:53 AM 4.4 °C -1.3 °C 1.1 °C 79% 1002.7 hPa 9.7 km SE 37.0 km/h / 10.3 m/s 53.7 km/h / 14.9 m/s 0.8 mm Rain Light Rain
9:53 AM 3.9 °C -1.9 °C 1.1 °C 82% 1001.5 hPa 6.4 km SE 37.0 km/h / 10.3 m/s 61.1 km/h / 17.0 m/s 1.3 mm Rain Light Rain
10:53 AM 3.9 °C -1.9 °C 1.7 °C 86% 999.7 hPa 6.4 km SE 37.0 km/h / 10.3 m/s 57.4 km/h / 15.9 m/s 3.0 mm Rain Light Rain
11:53 AM 4.4 °C -0.8 °C 2.2 °C 86% 999.5 hPa 9.7 km SSE 31.5 km/h / 8.7 m/s 51.9 km/h / 14.4 m/s 2.8 mm Rain Light Rain
12:53 PM 4.4 °C -1.0 °C 2.2 °C 86% 998.9 hPa 11.3 km SSE 33.3 km/h / 9.3 m/s 57.4 km/h / 15.9 m/s 1.5 mm Rain Light Rain
1:53 PM 4.4 °C -0.5 °C 2.2 °C 86% 998.5 hPa 11.3 km SSE 27.8 km/h / 7.7 m/s 50.0 km/h / 13.9 m/s 2.3 mm Rain Light Rain
2:53 PM 5.0 °C 0.1 °C 2.8 °C 86% 997.9 hPa 9.7 km SE 29.6 km/h / 8.2 m/s 53.7 km/h / 14.9 m/s 1.8 mm Rain Light Rain
3:53 PM 5.6 °C 0.7 °C 3.3 °C 85% 997.2 hPa 12.9 km SE 31.5 km/h / 8.7 m/s 48.2 km/h / 13.4 m/s 0.8 mm Rain Light Rain
4:53 PM 5.6 °C 0.9 °C 2.8 °C 82% 996.1 hPa 12.9 km SSE 29.6 km/h / 8.2 m/s 38.9 km/h / 10.8 m/s 1.5 mm Rain Light Rain
5:53 PM 5.6 °C 0.3 °C 2.8 °C 82% 995.3 hPa 14.5 km SE 37.0 km/h / 10.3 m/s 64.8 km/h / 18.0 m/s 2.3 mm Rain Light Rain
6:53 PM 5.0 °C 0.3 °C 2.8 °C 86% 995.4 hPa 12.9 km SSE 27.8 km/h / 7.7 m/s 66.7 km/h / 18.5 m/s 2.8 mm Rain Light Rain
7:53 PM 5.6 °C -0.5 °C 2.2 °C 79% 996.5 hPa 16.1 km ESE 50.0 km/h / 13.9 m/s 64.8 km/h / 18.0 m/s 1.3 mm Rain Light Rain
8:53 PM 5.6 °C -0.1 °C 2.8 °C 82% 998.1 hPa 16.1 km SE 42.6 km/h / 11.8 m/s 51.9 km/h / 14.4 m/s 1.5 mm   Overcast
9:00 PM 6.0 °C 1.4 °C 3.0 °C 81% 998.2 hPa 16.1 km SE 29.6 km/h / 8.2 m/s 51.9 km/h / 14.4 m/s N/A   Overcast
9:53 PM 6.1 °C 2.4 °C 3.3 °C 82% 999.2 hPa 16.1 km SE 20.4 km/h / 5.7 m/s - 0.3 mm   Mostly Cloudy
10:21 PM 6.0 °C 3.0 °C 4.0 °C 87% 999.2 hPa 16.1 km SSE 14.8 km/h / 4.1 m/s - N/A   Overcast
10:53 PM 6.1 °C 2.9 °C 3.9 °C 86% 999.8 hPa 16.1 km SE 16.7 km/h / 4.6 m/s - N/A   Overcast
11:53 PM 6.1 °C 2.0 °C 3.9 °C 86% 1000.3 hPa 16.1 km SE 24.1 km/h / 6.7 m/s - N/A   Overcast